Wind_Speed
48 48 48 47 47 45 45 47 47 46 46 46 46 47 47 47 47 47 47 48 48 48 48 48 49 49 49 50 50 49 48 47 47 47 46 46 45 45
47 46 46 46 45 44 45 45 45 45 46 45 45 45 44 44 45 45 46 46 46 46 47 47 47 48 48 49 49 49 48 48 47 47 46 46 45 44
47 46 46 46 45 45 44 44 44 44 44 43 43 42 42 42 43 43 44 45 45 44 44 45 46 46 47 47 48 48 48 48 48 48 47 46 45 45
45 45 46 45 45 45 44 44 43 42 42 41 40 39 40 40 41 42 44 44 43 43 42 43 45 45 46 46 47 47 48 48 48 47 46 46 46 44
42 43 43 44 45 45 44 43 43 42 41 40 39 39 39 38 39 40 41 42 41 41 41 42 43 44 45 45 46 46 47 46 46 45 45 45 45 44
39 39 41 41 42 43 43 43 42 41 40 39 39 39 38 37 37 38 39 40 40 40 41 41 42 43 43 43 43 43 43 43 43 43 43 43 42 42
37 37 38 39 39 39 40 41 41 40 40 39 38 38 37 36 36 37 38 39 40 40 41 41 41 41 40 40 40 40 40 40 40 41 41 41 41 40
36 36 36 37 37 38 38 39 39 39 39 39 38 37 36 36 36 37 38 37 38 39 39 39 39 38 38 38 38 37 37 38 39 39 39 39 39 39
34 34 35 35 36 37 37 38 38 38 39 38 38 37 37 36 36 37 37 36 37 37 37 37 37 37 37 36 35 35 35 36 36 36 36 35 35 35
34 33 34 34 35 35 36 37 37 37 38 38 38 38 37 35 35 36 35 35 34 35 35 35 36 35 35 34 33 34 34 34 33 33 33 33 32 31
32 32 33 33 34 34 35 35 35 36 37 38 37 36 35 34 34 34 34 33 33 33 33 34 34 33 32 31 31 31 30 29 29 30 30 29 29 28
31 31 31 31 31 32 33 34 35 36 36 36 35 34 33 32 33 33 33 32 32 32 31 31 31 30 29 29 29 29 27 26 26 26 25 25 25 25
29 29 28 28 29 30 32 32 33 34 34 33 33 32 31 31 31 32 31 31 30 30 29 29 29 28 27 26 26 26 24 23 22 22 21 21 22 22
26 26 26 27 28 29 30 31 31 31 32 31 31 30 30 30 30 30 29 29 28 28 27 27 26 26 26 25 24 23 22 21 20 19 18 18 19 20
25 25 25 25 25 27 27 28 29 30 30 29 29 28 28 27 27 27 27 27 27 26 25 24 23 23 23 22 21 20 20 19 19 18 18 18 18 18
23 22 22 23 24 25 25 26 26 27 27 27 26 26 26 25 25 25 26 25 24 23 23 22 21 20 19 19 19 18 18 18 18 17 16 16 16 17
21 20 21 22 22 23 23 23 23 23 24 24 24 24 24 23 23 23 23 23 22 20 20 20 19 19 18 18 18 17 16 16 16 16 15 15 16 16
19 19 19 19 19 20 20 20 20 20 21 21 21 21 22 21 21 21 20 20 20 19 18 17 18 18 17 17 16 15 15 15 15 15 14 13 13 14
17 17 17 16 17 17 17 17 17 18 18 18 18 19 19 19 19 19 19 19 18 18 17 16 16 15 15 14 13 12 13 13 13 13 13 12 12 12
15 15 15 15 15 16 16 16 16 16 16 16 17 17 17 17 17 17 17 18 17 16 16 16 15 14 13 12 11 10 11 11 11 11 12 12 11 11
14 14 14 14 14 14 14 14 14 14 14 15 15 14 15 15 16 16 15 15 14 14 15 15 15 14 13 11 10 9 9 10 10 9 10 11 10 10
13 13 13 13 13 13 13 13 13 13 13 13 13 13 13 14 14 14 13 13 12 12 13 13 13 12 10 10 10 9 9 9 9 9 9 10 10 9
12 12 13 13 13 13 12 12 12 12 12 12 12 12 12 11 11 11 11 11 11 11 11 12 12 11 10 9 9 9 9 9 9 8 8 9 9 9
Wind_Direction
265 264 264 264 265 265 265 266 266 266 267 269 271 272 271 271 272 272 271 272 272 271 271 271 271 272 273 272 271 272 273 274 275 277 277 277 276 275
265 264 262 263 264 264 265 266 267 267 268 268 270 270 271 271 272 273 273 273 273 271 271 272 272 273 273 272 271 271 271 272 273 274 275 274 274 274
264 263 261 261 262 263 263 264 266 269 269 270 270 269 269 271 273 274 274 274 273 271 272 273 274 274 274 273 272 271 271 272 272 273 273 272 273 274
264 263 261 261 261 262 262 263 266 268 268 268 269 268 271 273 273 274 275 274 273 273 274 274 275 276 276 275 273 271 270 270 270 271 271 271 272 272
265 263 261 261 260 260 261 262 264 267 268 267 266 269 271 273 274 275 275 275 274 274 276 276 276 277 277 275 273 272 271 271 270 270 270 271 271 271
266 264 263 262 262 261 260 262 264 265 266 265 265 268 271 273 274 275 275 275 273 275 278 278 278 279 278 276 275 273 272 271 270 270 271 271 271 270
266 265 263 262 261 261 260 261 262 264 263 263 264 267 271 273 274 274 275 274 274 276 278 279 279 280 278 276 275 274 272 271 270 270 271 271 269 268
266 265 263 262 261 261 262 262 262 262 262 262 263 267 271 273 274 275 275 275 277 278 278 279 280 281 279 277 275 274 273 272 272 270 270 270 268 267
266 266 265 263 262 262 262 262 262 261 260 261 263 266 270 273 275 275 276 278 279 279 279 280 279 281 280 276 275 275 274 273 272 270 271 269 267 265
265 266 265 263 262 263 262 262 262 262 261 262 264 267 270 273 275 275 275 278 279 280 281 282 280 280 280 277 275 276 275 274 272 270 271 268 265 262
265 265 264 263 262 263 263 263 262 262 262 264 266 268 271 272 274 274 276 279 279 281 282 282 280 279 279 277 276 276 275 273 273 272 270 266 263 260
264 265 264 263 262 263 264 264 263 263 263 264 266 269 271 272 274 275 276 277 278 280 281 280 278 277 278 277 276 277 276 274 275 272 270 266 262 259
265 264 265 264 264 265 266 266 265 264 263 264 266 268 270 271 273 275 277 277 279 280 281 279 276 276 279 277 277 276 275 276 277 273 268 264 258 255
265 267 267 267 266 265 267 267 266 265 264 265 266 267 269 271 272 274 276 279 279 279 279 278 277 279 280 278 276 272 270 271 272 269 264 259 255 254
266 267 267 268 268 269 269 268 267 266 265 265 266 267 268 270 272 274 277 279 278 277 277 278 279 280 279 276 274 270 264 264 265 264 261 259 254 253
265 265 267 268 270 270 270 269 268 266 265 265 266 267 267 270 272 274 277 278 277 276 276 276 279 280 277 275 274 271 262 260 261 261 258 257 253 250
266 266 267 268 269 269 269 269 267 266 266 265 265 266 267 269 270 271 272 273 274 274 274 274 276 277 280 280 275 270 263 259 257 256 255 252 251 249
266 265 267 269 270 269 270 269 267 267 267 266 265 266 266 266 268 269 268 268 270 271 273 272 274 275 279 280 273 265 262 259 257 255 252 249 243 242
264 264 266 268 269 269 270 270 269 268 267 265 265 265 264 264 265 265 266 268 270 271 271 270 271 273 275 276 269 262 258 256 253 249 246 241 238 238
263 262 263 266 268 269 270 270 269 269 268 267 266 265 262 262 262 265 268 269 269 269 268 267 268 269 272 270 261 256 252 248 242 240 238 235 234 234
260 261 264 266 266 268 270 271 270 270 269 268 266 261 258 260 262 266 268 269 268 267 267 267 269 269 267 262 254 250 244 239 236 233 233 231 229 231
260 261 263 264 263 266 269 273 272 270 270 267 263 260 260 262 263 266 266 267 267 267 266 266 265 264 264 259 251 244 238 233 230 230 231 229 227 226
259 260 262 261 262 266 270 272 270 269 267 263 261 259 259 262 264 264 265 265 264 263 263 262 260 258 253 247 247 240 233 230 230 230 227 227 226 225
Height
5620 5620 5620 5621 5621 5622 5622 5623 5624 5624 5625 5624 5623 5622 5621 5620 5620 5619 5619 5618 5618 5618 5617 5617 5616 5616 5615 5615 5614 5614 5613 5613 5612 5610 5609 5607 5605 5604
5607 5608 5608 5609 5609 5610 5610 5611 5612 5612 5613 5612 5611 5610 5609 5609 5608 5607 5607 5606 5605 5605 5604 5604 5603 5603 5602 5601 5601 5600 5600 5600 5599 5598 5596 5594 5593 5591
5595 5595 5596 5597 5597 5598 5599 5600 5600 5601 5601 5601 5599 5599 5599 5599 5597 5596 5595 5594 5594 5593 5592 5591 5591 5590 5589 5588 5587 5587 5586 5586 5585 5585 5583 5582 5581 5580
5582 5583 5584 5584 5586 5587 5588 5589 5589 5589 5589 5589 5589 5589 5588 5588 5587 5586 5584 5583 5583 5582 5581 5580 5579 5578 5576 5575 5574 5574 5573 5573 5572 5571 5571 5571 5570 5568
5570 5571 5571 5572 5574 5575 5576 5577 5578 5578 5578 5579 5579 5579 5578 5577 5576 5576 5574 5573 5572 5571 5569 5569 5567 5566 5565 5563 5562 5561 5560 5560 5559 5559 5558 5557 5557 5556
5560 5560 5560 5561 5562 5564 5565 5566 5567 5568 5568 5568 5569 5569 5568 5567 5566 5565 5564 5562 5561 5560 5559 5557 5556 5554 5553 5551 5550 5549 5548 5547 5546 5546 5545 5545 5544 5544
5550 5550 5550 5551 5552 5553 5554 5555 5556 5557 5558 5558 5559 5559 5559 5558 5557 5555 5554 5553 5551 5550 5549 5547 5546 5543 5541 5540 5538 5537 5536 5535 5534 5534 5533 5533 5533 5532
5540 5540 5541 5541 5542 5543 5544 5545 5546 5547 5547 5548 5549 5549 5548 5548 5547 5545 5544 5544 5543 5541 5539 5537 5535 5532 5530 5529 5527 5526 5525 5524 5523 5522 5522 5521 5521 5521
5531 5531 5531 5532 5532 5533 5533 5534 5535 5536 5537 5538 5539 5539 5539 5538 5537 5536 5534 5533 5532 5530 5529 5527 5524 5522 5520 5518 5516 5515 5514 5513 5512 5511 5510 5510 5510 5510
5522 5522 5522 5522 5523 5524 5524 5525 5526 5526 5527 5528 5529 5529 5529 5528 5527 5526 5525 5524 5522 5520 5519 5517 5514 5512 5510 5508 5507 5505 5504 5503 5501 5500 5500 5499 5499 5500
5513 5513 5513 5514 5514 5515 5515 5516 5516 5517 5517 5517 5518 5519 5518 5518 5517 5517 5516 5515 5514 5512 5509 5508 5505 5503 5501 5500 5498 5496 5495 5493 5492 5491 5490 5490 5490 5491
5504 5504 5504 5505 5505 5505 5506 5506 5507 5507 5507 5508 5508 5509 5509 5509 5508 5507 5506 5505 5504 5503 5501 5498 5496 5495 5494 5492 5490 5488 5487 5485 5484 5482 5481 5482 5482 5483
5495 5496 5496 5496 5497 5497 5497 5497 5497 5497 5497 5498 5499 5499 5499 5500 5499 5499 5498 5496 5495 5494 5492 5490 5489 5487 5485 5485 5483 5481 5479 5478 5476 5475 5475 5475 5476 5477
5487 5488 5488 5488 5488 5488 5488 5488 5488 5488 5489 5489 5490 5491 5491 5491 5491 5490 5489 5488 5486 5485 5484 5482 5481 5480 5478 5477 5476 5475 5473 5472 5471 5470 5470 5470 5470 5471
5479 5480 5480 5480 5480 5480 5480 5479 5479 5480 5480 5481 5482 5482 5483 5483 5482 5482 5481 5480 5478 5477 5476 5475 5474 5473 5471 5470 5469 5469 5468 5467 5467 5466 5466 5466 5467 5467
5472 5473 5473 5473 5473 5473 5472 5472 5472 5472 5472 5473 5474 5474 5474 5474 5474 5474 5473 5472 5472 5471 5470 5469 5467 5466 5465 5464 5463 5463 5463 5463 5462 5462 5462 5462 5463 5464
5465 5466 5466 5466 5466 5466 5465 5465 5465 5465 5465 5466 5466 5467 5467 5467 5467 5467 5466 5466 5465 5465 5464 5463 5462 5461 5459 5459 5458 5458 5458 5458 5458 5458 5458 5459 5460 5460
5459 5460 5460 5460 5460 5459 5459 5459 5459 5459 5459 5459 5459 5460 5460 5460 5460 5460 5460 5460 5459 5459 5458 5457 5456 5456 5455 5454 5454 5453 5453 5454 5454 5454 5454 5455 5456 5457
5454 5454 5455 5455 5454 5454 5454 5454 5454 5454 5453 5453 5453 5454 5454 5454 5454 5454 5454 5454 5453 5453 5452 5452 5451 5451 5450 5450 5449 5449 5449 5450 5450 5451 5451 5452 5453 5454
5449 5450 5450 5450 5450 5450 5449 5449 5449 5448 5448 5448 5448 5448 5449 5449 5449 5449 5449 5448 5448 5447 5447 5447 5446 5446 5446 5446 5445 5445 5446 5446 5447 5448 5448 5449 5450 5451
5445 5445 5446 5446 5446 5445 5445 5445 5444 5444 5444 5443 5443 5444 5444 5444 5445 5444 5444 5443 5443 5443 5443 5443 5442 5442 5442 5442 5442 5443 5443 5444 5444 5445 5446 5447 5448 5449
5441 5442 5442 5441 5441 5441 5441 5441 5440 5440 5439 5439 5439 5440 5440 5440 5440 5440 5440 5440 5439 5439 5439 5439 5439 5439 5439 5440 5440 5440 5441 5441 5442 5443 5444 5446 5447 5448
5437 5437 5437 5437 5437 5437 5437 5437 5436 5436 5436 5436 5436 5436 5436 5436 5437 5437 5437 5436 5436 5436 5436 5436 5436 5436 5437 5437 5438 5439 5439 5440 5441 5442 5443 5443 5445 5446